Regional Weather Roundup
Issued by NWS Sioux Falls, SD

Home | Current Version | Previous Version | Text Only | Print | Product List | Glossary On
Versions: 1 2 3 4 5 6 7 8 9 10 11 12 13 14 15 16 17 18 19 20 21 22 23 24 25 26 27 28 29 30 31 32 33 34 35 36 37 38 39 40 41 42 43 44 45 46 47 48 49 50
254
ASUS43 KFSD 251310
RWRFSD

WEATHER ROUNDUP FOR SE SOUTH DAKOTA/SW MINNESOTA/NW IOWA
NATIONAL WEATHER SERVICE SIOUX FALLS SD
800 AM CDT SUN SEP 25 2016

NOTE: "FAIR" INDICATES FEW OR NO CLOUDS BELOW 12,000 FEET WITH NO
SIGNIFICANT WEATHER AND OR OBSTRUCTIONS TO VISIBILITY.


SDZ038>040-050-052>070-251400-
SOUTHEAST SOUTH DAKOTA

CITY           SKY/WX    TMP DP  RH WIND       PRES   REMARKS
BROOKINGS      CLOUDY    54  49  83 W13G21    29.94R
CHAMBERLAIN    CLOUDY    58  47  65 W21       30.06R
HURON          CLOUDY    57  48  72 W20G28    29.97R
MADISON        PTSUNNY   54  54 100 W18G25    29.97R
MITCHELL       CLOUDY    59  46  62 W15G26    30.01R
SIOUX FALLS    MOCLDY    55  48  77 W7        29.99R
WINNER         FAIR      56  43  61 NW18G31   30.12R
YANKTON        CLEAR     55  46  71 W12       30.04R
$$

MNZ071-072-080-081-089-090-097-098-251400-
SOUTHWEST MINNESOTA

CITY           SKY/WX    TMP DP  RH WIND       PRES   REMARKS
FAIRMONT       PTCLDY    58  51  78 W13       29.98R
JACKSON        CLOUDY    55  46  71 W9        29.99R
LUVERNE        CLEAR     50  45  81 SW6       30.00R
MARSHALL       CLEAR     54  48  80 SW10      29.92S
MONTEVIDEO     PTCLDY    54  52  94 W8        29.91S
PIPESTONE      CLEAR     52  46  82 W10       29.96S
REDWOOD FALLS  CLOUDY    56  49  77 SW10      29.92S
TRACY          CLEAR     54  50  86 SW10      29.95R
WINDOM         CLOUDY    54  48  82 SW8       29.97R
WORTHINGTON    CLOUDY    53  48  83 SW10      29.99R
$$

IAZ001>003-012>014-020>022-031-032-NEZ013-014-SDZ071-251400-
NORTHWEST IOWA

CITY           SKY/WX    TMP DP  RH WIND       PRES   REMARKS
CHEROKEE       PTCLDY    53  50  89 SW5       30.04R
DENISON        CLOUDY    57  52  82 W6        30.05R
ESTHERVILLE    PTCLDY    55  51  86 W8        30.00R
LE MARS        CLEAR     54  48  82 SW6       30.05S
ORANGE CITY    CLEAR     52  46  82 W8        30.03S
SHELDON        CLEAR     52  50  93 SW7       30.00S
SIOUX CITY     PTCLDY    56  48  74 W12       30.06R
SPENCER        CLOUDY    55  50  83 W10       30.02R
STORM LAKE     CLOUDY    55  50  82 W10       30.04S
$$

ABBREVIATIONS USED IN REMARKS
   TC - TEMPERATURE IN CELSIUS
  WCI - WIND CHILL INDEX
   HX - HEAT INDEX
  VSB - VISIBILITY





USA.gov is the U.S. government's official web portal to all federal, state and local government web resources and services.